Location: Unspecified
(0.0000°N, 0.0000°E)
Time: 21:38:38
(UTC+00:00)

COSMOS 2391 - Pass Details

Date: 26 June 2024
Orbit: 1465 x 1506 km, 82.5° (Epoch: 21 July)

Event Time Altitude Azimuth Distance (km) Brightness Sun altitude
Rises 22:37:13 0° 349° (NNW) 4,610 11.4 -58.7°
Reaches altitude 10° 22:40:07 10° 346° (NNW) 3,636 10.7 -59.2°
Enters shadow 22:40:55 13° 345° (NNW) 3,377 10.5 -59.3°
